Find Starlink 32233

NORAD ID: 60434 Int'l Des: 2024-144 Owner: SPXS Country: US Constellation: starlink operational
LEOCIRCULAR

Current View

Loading 3D Globe...

About Starlink 32233

Starlink 32233 (NORAD 60434) is a starlink constellation satellite (v2 mini) launched Aug 12, 2024 by SPXS of US. It operates in LEO, CIRCULAR orbit with a mass of 730.00 kg.

About Starlink 32233

Description loading...

Upcoming Passes

Passes for default location (London). Set your location on the main map for personalized predictions.

Altitude History

Loading altitude history...

Two-Line Element Set

1 60434U 24144K 26169.10222873 .00000267 00000-0 19050-4 0 9995
2 60434 53.1607 109.2518 0001426 92.4552 267.6614 15.34390973104705
Epoch: Jun 18, 2026 • Age: 15 hours

Current Status

Altitude 480.2 km
Velocity 7.62 km/s
Sub-Earth Point -48.36°S, 172.23°E
Launch Date Aug 12, 2024
Age 1.8 years
Type internet

Technical Details

Classification Payload
Mass 730.00 kg
Dry Mass 700.00 kg
Total Mass 730.00 kg
Length 0.30 m
Diameter 4.10 m
Span 29.00 m
Shape Box + pan
Manufacturer SPXS
Bus Type Starlink V2M
Phase Status In Orbit
Owner/State SPXS/US

Most Searched